TimeCDT,TemperatureF,Dew PointF,Humidity,Sea Level PressureIn,VisibilityMPH,Wind Direction,Wind SpeedMPH,Gust SpeedMPH,PrecipitationIn,Events,Conditions,WindDirDegrees,DateUTC
12:15 AM,64.4,44.6,49,29.85,10.0,SSE,15.0,20.7,N/A,,Clear,160,2013-10-09 05:15:00
12:35 AM,64.4,44.6,49,29.85,10.0,South,13.8,20.7,N/A,,Clear,170,2013-10-09 05:35:00
12:55 AM,64.4,44.6,49,29.85,10.0,South,13.8,18.4,N/A,,Clear,170,2013-10-09 05:55:00
1:15 AM,64.4,44.6,49,29.86,10.0,South,13.8,21.9,N/A,,Clear,190,2013-10-09 06:15:00
1:35 AM,62.6,44.6,52,29.86,10.0,South,11.5,19.6,N/A,,Clear,170,2013-10-09 06:35:00
1:55 AM,62.6,44.6,52,29.86,10.0,SSE,15.0,18.4,N/A,,Clear,160,2013-10-09 06:55:00
2:15 AM,62.6,44.6,52,29.87,10.0,South,13.8,18.4,N/A,,Clear,170,2013-10-09 07:15:00
2:35 AM,60.8,46.4,59,29.87,10.0,SSE,16.1,-,N/A,,Clear,160,2013-10-09 07:35:00
2:55 AM,60.8,46.4,59,29.87,10.0,SSE,13.8,-,N/A,,Clear,160,2013-10-09 07:55:00
3:15 AM,59.0,46.4,63,29.87,10.0,SSE,12.7,-,N/A,,Clear,150,2013-10-09 08:15:00
3:35 AM,57.2,46.4,67,29.87,10.0,SE,10.4,-,N/A,,Clear,130,2013-10-09 08:35:00
3:55 AM,57.2,46.4,67,29.88,10.0,SE,8.1,-,N/A,,Clear,130,2013-10-09 08:55:00
4:15 AM,57.2,46.4,67,29.88,10.0,SE,8.1,-,N/A,,Clear,130,2013-10-09 09:15:00
4:35 AM,57.2,46.4,67,29.89,10.0,SE,4.6,-,N/A,,Clear,130,2013-10-09 09:35:00
4:55 AM,55.4,46.4,72,29.90,10.0,East,4.6,-,N/A,,Clear,100,2013-10-09 09:55:00
5:15 AM,55.4,46.4,72,29.90,10.0,ESE,4.6,-,N/A,,Clear,110,2013-10-09 10:15:00
5:35 AM,51.8,46.4,82,29.91,10.0,ENE,9.2,-,N/A,,Clear,60,2013-10-09 10:35:00
5:55 AM,53.6,46.4,77,29.91,10.0,ESE,8.1,-,N/A,,Clear,110,2013-10-09 10:55:00
6:15 AM,51.8,44.6,76,29.92,10.0,ENE,6.9,-,N/A,,Clear,60,2013-10-09 11:15:00
6:35 AM,51.8,44.6,76,29.92,10.0,East,8.1,-,N/A,,Clear,90,2013-10-09 11:35:00
6:55 AM,51.8,44.6,76,29.92,10.0,East,9.2,-,N/A,,Clear,100,2013-10-09 11:55:00
7:15 AM,51.8,44.6,76,29.92,10.0,East,6.9,-,N/A,,Clear,90,2013-10-09 12:15:00
7:35 AM,50.0,44.6,82,29.93,10.0,East,6.9,-,N/A,,Clear,100,2013-10-09 12:35:00
7:55 AM,50.0,44.6,82,29.93,10.0,ESE,6.9,-,N/A,,Clear,110,2013-10-09 12:55:00
8:15 AM,50.0,44.6,82,29.93,10.0,ESE,8.1,-,N/A,,Clear,110,2013-10-09 13:15:00
8:35 AM,51.8,46.4,82,29.94,10.0,ESE,5.8,-,N/A,,Clear,110,2013-10-09 13:35:00
8:55 AM,53.6,46.4,77,29.94,10.0,SE,8.1,-,N/A,,Clear,130,2013-10-09 13:55:00
9:15 AM,55.4,46.4,72,29.94,5.0,ESE,11.5,-,N/A,,Partly Cloudy,120,2013-10-09 14:15:00
9:35 AM,57.2,46.4,67,29.94,10.0,SE,10.4,-,N/A,,Clear,140,2013-10-09 14:35:00
9:55 AM,57.2,46.4,67,29.95,10.0,SE,9.2,-,N/A,,Clear,130,2013-10-09 14:55:00
10:15 AM,59.0,48.2,67,29.94,10.0,SE,12.7,-,N/A,,Clear,140,2013-10-09 15:15:00
10:35 AM,60.8,48.2,63,29.94,10.0,SSE,11.5,16.1,N/A,,Clear,150,2013-10-09 15:35:00
10:55 AM,62.6,48.2,59,29.94,10.0,SSE,11.5,-,N/A,,Clear,150,2013-10-09 15:55:00
11:15 AM,62.6,48.2,59,29.95,10.0,SSE,11.5,-,N/A,,Clear,150,2013-10-09 16:15:00
11:35 AM,64.4,48.2,56,29.95,10.0,SE,11.5,-,N/A,,Clear,140,2013-10-09 16:35:00
11:55 AM,64.4,48.2,56,29.95,10.0,SE,11.5,17.3,N/A,,Clear,140,2013-10-09 16:55:00
12:15 PM,66.2,48.2,52,29.94,10.0,SE,9.2,18.4,N/A,,Clear,140,2013-10-09 17:15:00
12:35 PM,66.2,48.2,52,29.94,10.0,SE,12.7,17.3,N/A,,Clear,140,2013-10-09 17:35:00
12:55 PM,68.0,48.2,49,29.93,10.0,SSE,16.1,19.6,N/A,,Clear,150,2013-10-09 17:55:00
1:15 PM,69.8,48.2,46,29.92,10.0,ESE,12.7,21.9,N/A,,Clear,120,2013-10-09 18:15:00
1:35 PM,71.6,48.2,43,29.91,10.0,SSE,15.0,23.0,N/A,,Clear,150,2013-10-09 18:35:00
1:55 PM,71.6,48.2,43,29.90,10.0,SE,18.4,-,N/A,,Clear,140,2013-10-09 18:55:00
2:15 PM,73.4,50.0,44,29.89,10.0,SE,17.3,21.9,N/A,,Clear,130,2013-10-09 19:15:00
2:35 PM,73.4,48.2,41,29.88,10.0,SE,15.0,20.7,N/A,,Clear,130,2013-10-09 19:35:00
2:55 PM,75.2,50.0,41,29.88,10.0,ESE,13.8,23.0,N/A,,Clear,110,2013-10-09 19:55:00
3:15 PM,75.2,51.8,44,29.88,10.0,SE,12.7,23.0,N/A,,Clear,140,2013-10-09 20:15:00
3:35 PM,75.2,50.0,41,29.87,10.0,SE,19.6,24.2,N/A,,Clear,130,2013-10-09 20:35:00
3:55 PM,77.0,50.0,39,29.87,10.0,SE,17.3,23.0,N/A,,Clear,130,2013-10-09 20:55:00
4:15 PM,77.0,48.2,36,29.86,10.0,SE,18.4,24.2,N/A,,Clear,130,2013-10-09 21:15:00
4:35 PM,78.8,50.0,36,29.86,10.0,SSE,16.1,21.9,N/A,,Clear,150,2013-10-09 21:35:00
4:55 PM,78.8,48.2,34,29.85,10.0,SE,18.4,-,N/A,,Clear,140,2013-10-09 21:55:00
5:15 PM,78.8,50.0,36,29.85,10.0,SSE,19.6,23.0,N/A,,Clear,150,2013-10-09 22:15:00
5:35 PM,77.0,48.2,36,29.85,10.0,SE,17.3,24.2,N/A,,Clear,140,2013-10-09 22:35:00
5:55 PM,77.0,48.2,36,29.86,10.0,SE,16.1,24.2,N/A,,Clear,140,2013-10-09 22:55:00
6:15 PM,75.2,50.0,41,29.87,10.0,SE,12.7,20.7,N/A,,Clear,140,2013-10-09 23:15:00
6:35 PM,73.4,48.2,41,29.87,10.0,SE,12.7,-,N/A,,Clear,140,2013-10-09 23:35:00
6:55 PM,73.4,48.2,41,29.88,10.0,SE,11.5,-,N/A,,Clear,140,2013-10-09 23:55:00
7:15 PM,71.6,48.2,43,29.88,10.0,SE,11.5,-,N/A,,Clear,140,2013-10-10 00:15:00
7:35 PM,69.8,48.2,46,29.88,10.0,SE,10.4,-,N/A,,Clear,130,2013-10-10 00:35:00
7:55 PM,68.0,48.2,49,29.89,10.0,SE,8.1,-,N/A,,Clear,130,2013-10-10 00:55:00
8:15 PM,68.0,50.0,52,29.89,10.0,SE,10.4,-,N/A,,Clear,130,2013-10-10 01:15:00
8:35 PM,66.2,51.8,60,29.90,10.0,SE,10.4,-,N/A,,Clear,130,2013-10-10 01:35:00
8:55 PM,66.2,50.0,56,29.90,10.0,SE,11.5,-,N/A,,Clear,130,2013-10-10 01:55:00
9:15 PM,66.2,50.0,56,29.90,10.0,SE,11.5,-,N/A,,Clear,130,2013-10-10 02:15:00
9:35 PM,64.4,50.0,59,29.90,10.0,SE,11.5,-,N/A,,Clear,130,2013-10-10 02:35:00
9:55 PM,64.4,50.0,59,29.91,10.0,SE,11.5,-,N/A,,Clear,130,2013-10-10 02:55:00
10:15 PM,64.4,50.0,59,29.91,10.0,SE,11.5,-,N/A,,Clear,140,2013-10-10 03:15:00
10:35 PM,62.6,50.0,63,29.91,10.0,SE,10.4,-,N/A,,Clear,140,2013-10-10 03:35:00
10:55 PM,62.6,50.0,63,29.91,10.0,SE,10.4,-,N/A,,Clear,130,2013-10-10 03:55:00
11:15 PM,62.6,50.0,63,29.91,10.0,SE,12.7,-,N/A,,Clear,140,2013-10-10 04:15:00
11:35 PM,62.6,50.0,63,29.91,10.0,SE,13.8,-,N/A,,Clear,140,2013-10-10 04:35:00
11:55 PM,62.6,50.0,63,29.91,10.0,SE,15.0,20.7,N/A,,Clear,140,2013-10-10 04:55:00